• In Netherlands
  • List of Countries
  • For 7 days
  • Water Temperature
  • Satellite Maps
  • Weather Map
  • Weather Widgets
  • user-avatar
    Login

    Hourly Weather Naftalan

    Today, 23 November, Thursday

    Time Temperature Precipitation Wind Pressure Humidity
    00:00 +8°C° 0.1 mm 10 mps 761 mmHg 71%
    01:00 +8°C° 0.2 mm 9 mps 761 mmHg 73%
    02:00 +8°C° 0.2 mm 9 mps 762 mmHg 74%
    03:00 +7°C° 0.2 mm 8 mps 762 mmHg 76%
    04:00 +7°C° 0.2 mm 8 mps 762 mmHg 76%
    05:00 +7°C° 0.2 mm 8 mps 762 mmHg 77%
    06:00 +8°C° 0.2 mm 7 mps 762 mmHg 77%
    07:00 +8°C° 0.1 mm 7 mps 763 mmHg 76%
    08:00 +8°C° 0.1 mm 6 mps 763 mmHg 74%
    09:00 +9°C° 0.1 mm 6 mps 763 mmHg 72%
    10:00 +9°C° 0.1 mm 5 mps 763 mmHg 67%
    11:00 +11°C° 0.1 mm 4 mps 763 mmHg 63%
    12:00 +12°C° 0.1 mm 4 mps 763 mmHg 58%
    13:00 +12°C° 0 mm 3 mps 763 mmHg 57%
    14:00 +13°C° 0 mm 2 mps 762 mmHg 55%
    15:00 +13°C° 0 mm 2 mps 762 mmHg 54%
    16:00 +13°C° 0 mm 2 mps 763 mmHg 58%
    17:00 +12°C° 0 mm 1 mps 763 mmHg 62%
    18:00 +11°C° 0 mm 1 mps 763 mmHg 66%
    19:00 +10°C° 0 mm 2 mps 763 mmHg 66%
    20:00 +10°C° 0 mm 3 mps 764 mmHg 66%
    21:00 +10°C° 0 mm 4 mps 764 mmHg 66%
    22:00 +8°C° 0 mm 5 mps 764 mmHg 58%
    23:00 +8°C° 0 mm 7 mps 764 mmHg 49%

    Tomorrow, 24 November, Friday

    Time Temperature Precipitation Wind Pressure Humidity
    00:00 +7°C° 0 mm 8 mps 765 mmHg 40%
    01:00 +6°C° 0 mm 9 mps 765 mmHg 41%
    02:00 +6°C° 0 mm 9 mps 765 mmHg 41%
    03:00 +6°C° 0 mm 9 mps 765 mmHg 41%
    04:00 +5°C° 0 mm 9 mps 766 mmHg 41%
    05:00 +5°C° 0 mm 8 mps 766 mmHg 40%
    06:00 +5°C° 0 mm 8 mps 766 mmHg 39%
    07:00 +5°C° 0.1 mm 8 mps 766 mmHg 36%
    08:00 +6°C° 0.1 mm 8 mps 767 mmHg 33%
    09:00 +6°C° 0.1 mm 8 mps 767 mmHg 29%
    10:00 +7°C° 0 mm 8 mps 767 mmHg 28%
    11:00 +9°C° 0 mm 8 mps 767 mmHg 26%
    12:00 +9°C° 0 mm 7 mps 767 mmHg 24%
    13:00 +9°C° 0 mm 7 mps 767 mmHg 24%
    14:00 +9°C° 0 mm 7 mps 767 mmHg 24%
    15:00 +9°C° 0 mm 7 mps 767 mmHg 24%
    16:00 +9°C° 0 mm 7 mps 767 mmHg 27%
    17:00 +8°C° 0 mm 7 mps 768 mmHg 30%
    18:00 +6°C° 0 mm 7 mps 768 mmHg 32%
    19:00 +5°C° 0 mm 7 mps 768 mmHg 34%
    20:00 +5°C° 0 mm 7 mps 769 mmHg 36%
    21:00 +4°C° 0 mm 7 mps 769 mmHg 38%
    22:00 +4°C° 0 mm 7 mps 769 mmHg 38%
    23:00 +4°C° 0 mm 7 mps 769 mmHg 39%

    Day after tomorrow, 25 November, Saturday

    Time Temperature Precipitation Wind Pressure Humidity
    00:00 +4°C° 0 mm 7 mps 769 mmHg 39%
    01:00 +3°C° 0 mm 7 mps 769 mmHg 38%
    02:00 +2°C° 0 mm 8 mps 769 mmHg 37%
    03:00 +2°C° 0 mm 8 mps 769 mmHg 36%
    04:00 +2°C° 0 mm 8 mps 769 mmHg 37%
    05:00 +1°C° 0 mm 8 mps 770 mmHg 38%
    06:00 +1°C° 0 mm 8 mps 770 mmHg 39%
    07:00 +2°C° 0 mm 8 mps 771 mmHg 36%
    08:00 +3°C° 0 mm 9 mps 771 mmHg 34%
    09:00 +6°C° 0 mm 10 mps 772 mmHg 31%
    10:00 +7°C° 0 mm 9 mps 772 mmHg 29%
    11:00 +8°C° 0 mm 9 mps 772 mmHg 28%
    12:00 +10°C° 0 mm 9 mps 772 mmHg 26%
    13:00 +10°C° 0 mm 9 mps 772 mmHg 26%
    14:00 +10°C° 0 mm 8 mps 773 mmHg 25%
    15:00 +10°C° 0 mm 8 mps 773 mmHg 25%
    16:00 +9°C° 0 mm 7 mps 774 mmHg 29%
    17:00 +8°C° 0 mm 6 mps 774 mmHg 34%
    18:00 +6°C° 0 mm 5 mps 775 mmHg 38%
    19:00 +6°C° 0 mm 5 mps 775 mmHg 42%
    20:00 +5°C° 0 mm 4 mps 776 mmHg 46%
    21:00 +5°C° 0 mm 4 mps 776 mmHg 50%
    22:00 +5°C° 0 mm 3 mps 776 mmHg 51%
    23:00 +5°C° 0 mm 3 mps 776 mmHg 52%

    26 November, Sunday

    Time Temperature Precipitation Wind Pressure Humidity
    00:00 +5°C° 0 mm 3 mps 776 mmHg 54%
    01:00 +4°C° 0 mm 3 mps 776 mmHg 58%
    02:00 +4°C° 0 mm 3 mps 776 mmHg 62%
    03:00 +4°C° 0 mm 3 mps 776 mmHg 66%
    04:00 +4°C° 0 mm 3 mps 776 mmHg 69%
    05:00 +4°C° 0 mm 3 mps 776 mmHg 72%
    06:00 +4°C° 0 mm 3 mps 776 mmHg 75%
    07:00 +5°C° 0.1 mm 3 mps 777 mmHg 72%
    08:00 +7°C° 0.1 mm 3 mps 777 mmHg 68%
    09:00 +7°C° 0.1 mm 4 mps 777 mmHg 64%
    10:00 +8°C° 0 mm 3 mps 776 mmHg 63%
    11:00 +9°C° 0 mm 3 mps 776 mmHg 61%
    12:00 +9°C° 0 mm 3 mps 776 mmHg 60%
    13:00 +9°C° 0 mm 3 mps 775 mmHg 60%
    14:00 +9°C° 0 mm 3 mps 775 mmHg 60%
    15:00 +9°C° 0 mm 3 mps 775 mmHg 59%
    16:00 +9°C° 0 mm 3 mps 775 mmHg 61%
    17:00 +8°C° 0 mm 2 mps 775 mmHg 62%
    18:00 +8°C° 0 mm 2 mps 775 mmHg 64%
    19:00 +8°C° 0 mm 2 mps 775 mmHg 63%
    20:00 +8°C° 0 mm 2 mps 775 mmHg 62%
    21:00 +8°C° 0 mm 2 mps 775 mmHg 61%
    22:00 +7°C° 0 mm 3 mps 775 mmHg 60%
    23:00 +7°C° 0 mm 3 mps 774 mmHg 59%

    27 November, Monday

    Time Temperature Precipitation Wind Pressure Humidity
    00:00 +6°C° 0 mm 4 mps 774 mmHg 58%
    01:00 +6°C° 0.1 mm 4 mps 774 mmHg 58%
    02:00 +5°C° 0.1 mm 5 mps 773 mmHg 58%
    03:00 +5°C° 0.1 mm 5 mps 773 mmHg 59%
    04:00 +3°C° 0 mm 5 mps 773 mmHg 59%
    05:00 +3°C° 0 mm 5 mps 773 mmHg 60%
    06:00 +2°C° 0 mm 5 mps 773 mmHg 60%
    07:00 +3°C° 0 mm 5 mps 773 mmHg 57%
    08:00 +5°C° 0 mm 5 mps 773 mmHg 54%
    09:00 +6°C° 0 mm 5 mps 773 mmHg 50%
    10:00 +7°C° 0 mm 4 mps 772 mmHg 47%
    11:00 +8°C° 0 mm 4 mps 771 mmHg 44%
    12:00 +11°C° 0 mm 3 mps 771 mmHg 40%
    13:00 +12°C° 0 mm 2 mps 771 mmHg 40%
    14:00 +12°C° 0 mm 2 mps 770 mmHg 39%
    15:00 +12°C° 0 mm 1 mps 770 mmHg 39%
    16:00 +11°C° 0 mm 1 mps 770 mmHg 44%
    17:00 +10°C° 0 mm 1 mps 770 mmHg 49%
    18:00 +9°C° 0 mm 1 mps 770 mmHg 54%
    19:00 +9°C° 0 mm 1 mps 770 mmHg 58%
    20:00 +7°C° 0 mm 2 mps 770 mmHg 62%
    21:00 +7°C° 0 mm 2 mps 770 mmHg 66%
    22:00 +8°C° 0 mm 2 mps 769 mmHg 64%
    23:00 +8°C° 0 mm 2 mps 769 mmHg 61%

    28 November, Tuesday

    Time Temperature Precipitation Wind Pressure Humidity
    00:00 +8°C° 0 mm 2 mps 769 mmHg 59%
    01:00 +8°C° 0 mm 3 mps 769 mmHg 57%
    02:00 +8°C° 0 mm 3 mps 768 mmHg 55%
    03:00 +8°C° 0 mm 3 mps 768 mmHg 53%
    04:00 +7°C° 0 mm 3 mps 768 mmHg 53%
    05:00 +6°C° 0 mm 4 mps 768 mmHg 52%
    06:00 +6°C° 0 mm 4 mps 768 mmHg 51%
    07:00 +6°C° 0 mm 4 mps 768 mmHg 47%
    08:00 +7°C° 0 mm 4 mps 768 mmHg 44%
    09:00 +8°C° 0 mm 4 mps 768 mmHg 40%
    10:00 +10°C° 0 mm 4 mps 768 mmHg 37%
    11:00 +11°C° 0 mm 4 mps 767 mmHg 35%
    12:00 +12°C° 0 mm 4 mps 766 mmHg 32%
    13:00 +13°C° 0 mm 4 mps 766 mmHg 32%
    14:00 +13°C° 0 mm 3 mps 766 mmHg 32%
    15:00 +13°C° 0 mm 3 mps 766 mmHg 31%
    16:00 +12°C° 0 mm 3 mps 766 mmHg 32%
    17:00 +12°C° 0 mm 2 mps 766 mmHg 32%
    18:00 +10°C° 0 mm 2 mps 766 mmHg 32%
    19:00 +9°C° 0 mm 3 mps 766 mmHg 32%
    20:00 +9°C° 0 mm 3 mps 766 mmHg 32%
    21:00 +9°C° 0 mm 3 mps 766 mmHg 32%
    22:00 +8°C° 0 mm 3 mps 766 mmHg 35%
    23:00 +7°C° 0 mm 4 mps 766 mmHg 37%
    Show more